Time,TemperatureF,DewpointF,PressureIn,WindDirection,WindDirectionDegrees,WindSpeedMPH,WindSpeedGustMPH,Humidity,HourlyPrecipIn,Conditions,Clouds,dailyrainin,SoftwareType,DateUTC
2013-02-01 00:01:00,33.5,20.7,29.91,SW,226,0.0,0.0,59,0.00,,,0.13,LWC V2.00 B2112,2013-02-01 05:01:00,
2013-02-01 00:11:00,33.8,20.6,29.91,SW,225,0.0,0.0,58,0.00,,,0.13,LWC V2.00 B2112,2013-02-01 05:11:00,
2013-02-01 00:16:00,34.1,20.5,29.91,SW,225,0.0,0.0,57,0.00,,,0.13,LWC V2.00 B2112,2013-02-01 05:16:00,
2013-02-01 00:21:00,34.4,20.3,29.91,WSW,244,0.0,0.0,56,0.00,,,0.13,LWC V2.00 B2112,2013-02-01 05:21:00,
2013-02-01 00:26:00,34.7,20.2,29.91,WSW,253,0.0,0.0,55,0.00,,,0.00,LWC V2.00 B2112,2013-02-01 05:26:00,
2013-02-01 00:31:00,35.2,19.8,29.91,South,169,0.0,0.0,53,0.00,,,0.00,LWC V2.00 B2112,2013-02-01 05:31:00,
2013-02-01 00:36:00,35.5,20.1,29.91,South,169,0.0,0.0,53,0.00,,,0.00,LWC V2.00 B2112,2013-02-01 05:36:00,
2013-02-01 00:41:00,35.6,20.2,29.91,South,170,0.0,0.0,53,0.00,,,0.00,LWC V2.00 B2112,2013-02-01 05:41:00,
2013-02-01 00:46:00,35.8,20.4,29.91,WSW,244,0.0,0.0,53,0.00,,,0.00,LWC V2.00 B2112,2013-02-01 05:46:00,
2013-02-01 00:51:00,35.9,20.5,29.91,SSW,200,0.0,0.0,53,0.00,,,0.00,LWC V2.00 B2112,2013-02-01 05:51:00,
2013-02-01 00:56:00,35.9,20.5,29.91,WSW,250,0.0,0.0,53,0.00,,,0.00,LWC V2.00 B2112,2013-02-01 05:56:00,
2013-02-01 01:01:00,35.9,20.5,29.91,South,181,0.0,0.0,53,0.00,,,0.00,LWC V2.00 B2112,2013-02-01 06:01:00,
2013-02-01 01:06:00,36.0,20.5,29.89,SW,220,0.0,0.0,53,0.00,,,0.00,LWC V2.00 B2112,2013-02-01 06:06:00,
2013-02-01 01:11:00,36.0,20.5,29.89,SW,220,0.0,0.0,53,0.00,,,0.00,LWC V2.00 B2112,2013-02-01 06:11:00,
2013-02-01 01:16:00,36.0,20.1,29.89,SW,220,0.0,0.0,52,0.00,,,0.00,LWC V2.00 B2112,2013-02-01 06:16:00,
2013-02-01 01:21:00,35.9,20.5,29.89,SW,220,0.0,0.0,53,0.00,,,0.00,LWC V2.00 B2112,2013-02-01 06:21:00,
2013-02-01 01:26:00,35.8,20.4,29.89,SW,216,0.0,0.0,53,0.00,,,0.00,LWC V2.00 B2112,2013-02-01 06:26:00,
2013-02-01 01:31:00,35.5,20.1,29.89,SW,216,0.0,0.0,53,0.00,,,0.00,LWC V2.00 B2112,2013-02-01 06:31:00,
2013-02-01 01:36:00,35.5,20.5,29.89,SSW,211,0.0,0.0,54,0.00,,,0.00,LWC V2.00 B2112,2013-02-01 06:36:00,
2013-02-01 01:41:00,35.6,20.2,29.89,South,191,0.0,0.0,53,0.00,,,0.00,LWC V2.00 B2112,2013-02-01 06:41:00,
2013-02-01 01:46:00,35.5,20.5,29.89,South,191,0.0,0.0,54,0.00,,,0.00,LWC V2.00 B2112,2013-02-01 06:46:00,
2013-02-01 01:51:00,35.5,20.5,29.89,SSW,198,0.0,0.0,54,0.00,,,0.00,LWC V2.00 B2112,2013-02-01 06:51:00,
2013-02-01 01:56:00,35.5,20.5,29.89,SSW,198,0.0,0.0,54,0.00,,,0.00,LWC V2.00 B2112,2013-02-01 06:56:00,
2013-02-01 02:01:00,35.5,21.0,29.89,SSW,199,0.0,0.0,55,0.00,,,0.00,LWC V2.00 B2112,2013-02-01 07:01:00,
2013-02-01 02:06:00,35.6,21.0,29.88,SE,143,0.0,0.0,55,0.00,,,0.00,LWC V2.00 B2112,2013-02-01 07:06:00,
2013-02-01 02:11:00,35.8,21.2,29.88,SW,225,0.0,0.0,55,0.00,,,0.00,LWC V2.00 B2112,2013-02-01 07:11:00,
2013-02-01 02:16:00,35.8,21.2,29.88,West,272,0.0,0.0,55,0.00,,,0.00,LWC V2.00 B2112,2013-02-01 07:16:00,
2013-02-01 02:21:00,35.8,21.7,29.87,South,172,0.0,0.0,56,0.00,,,0.00,LWC V2.00 B2112,2013-02-01 07:21:00,
2013-02-01 02:26:00,35.8,21.7,29.87,WSW,244,0.0,0.0,56,0.00,,,0.00,LWC V2.00 B2112,2013-02-01 07:26:00,
2013-02-01 02:31:00,35.6,21.9,29.87,South,172,0.0,0.0,57,0.00,,,0.00,LWC V2.00 B2112,2013-02-01 07:31:00,
2013-02-01 02:36:00,35.6,21.9,29.86,WSW,249,0.0,0.0,57,0.00,,,0.00,LWC V2.00 B2112,2013-02-01 07:36:00,
2013-02-01 02:41:00,35.8,22.1,29.86,SSW,203,0.0,0.0,57,0.00,,,0.00,LWC V2.00 B2112,2013-02-01 07:41:00,
2013-02-01 02:46:00,35.9,22.2,29.86,ESE,119,0.0,0.0,57,0.00,,,0.00,LWC V2.00 B2112,2013-02-01 07:46:00,
2013-02-01 02:51:00,36.0,22.3,29.84,SW,232,0.0,0.0,57,0.00,,,0.00,LWC V2.00 B2112,2013-02-01 07:51:00,
2013-02-01 02:56:00,36.0,22.7,29.84,SW,229,0.0,3.0,58,0.00,,,0.00,LWC V2.00 B2112,2013-02-01 07:56:00,
2013-02-01 03:01:00,36.0,22.3,29.84,South,182,0.0,0.0,57,0.00,,,0.00,LWC V2.00 B2112,2013-02-01 08:01:00,
2013-02-01 03:06:00,36.2,22.5,29.83,SW,229,0.0,0.0,57,0.00,,,0.00,LWC V2.00 B2112,2013-02-01 08:06:00,
2013-02-01 03:11:00,36.5,22.7,29.83,South,187,0.0,0.0,57,0.00,,,0.00,LWC V2.00 B2112,2013-02-01 08:11:00,
2013-02-01 03:16:00,36.8,23.0,29.83,South,175,0.0,0.0,57,0.00,,,0.00,LWC V2.00 B2112,2013-02-01 08:16:00,
2013-02-01 03:21:00,36.9,23.5,29.83,SSW,213,0.0,0.0,58,0.00,,,0.00,LWC V2.00 B2112,2013-02-01 08:21:00,
2013-02-01 03:26:00,37.2,23.0,29.83,SSW,211,3.0,6.0,56,0.00,,,0.00,LWC V2.00 B2112,2013-02-01 08:26:00,
2013-02-01 03:31:00,37.5,23.2,29.83,West,274,5.0,6.0,56,0.00,,,0.00,LWC V2.00 B2112,2013-02-01 08:31:00,
2013-02-01 03:36:00,37.8,23.5,29.83,SSW,199,0.0,0.0,56,0.00,,,0.00,LWC V2.00 B2112,2013-02-01 08:36:00,
2013-02-01 03:41:00,37.9,23.2,29.83,SSW,211,1.0,2.0,55,0.00,,,0.00,LWC V2.00 B2112,2013-02-01 08:41:00,
2013-02-01 03:46:00,38.0,23.3,29.83,SW,228,0.0,9.0,55,0.00,,,0.00,LWC V2.00 B2112,2013-02-01 08:46:00,
2013-02-01 03:51:00,38.2,23.5,29.82,WSW,243,1.0,7.0,55,0.00,,,0.00,LWC V2.00 B2112,2013-02-01 08:51:00,
2013-02-01 03:56:00,38.2,23.9,29.82,NW,312,0.0,0.0,56,0.00,,,0.00,LWC V2.00 B2112,2013-02-01 08:56:00,
2013-02-01 04:01:00,38.3,23.6,29.82,WNW,301,0.0,7.0,55,0.00,,,0.00,LWC V2.00 B2112,2013-02-01 09:01:00,
2013-02-01 04:06:00,38.5,23.8,29.81,SW,235,0.0,0.0,55,0.00,,,0.00,LWC V2.00 B2112,2013-02-01 09:06:00,
2013-02-01 04:11:00,38.5,23.8,29.81,South,186,0.0,11.0,55,0.00,,,0.00,LWC V2.00 B2112,2013-02-01 09:11:00,
2013-02-01 04:16:00,38.5,23.8,29.81,SE,136,0.0,9.0,55,0.00,,,0.00,LWC V2.00 B2112,2013-02-01 09:16:00,
2013-02-01 04:21:00,38.5,23.8,29.79,SSW,201,6.0,10.0,55,0.00,,,0.00,LWC V2.00 B2112,2013-02-01 09:21:00,
2013-02-01 04:26:00,38.6,23.8,29.79,SSW,196,0.0,4.0,55,0.00,,,0.00,LWC V2.00 B2112,2013-02-01 09:26:00,
2013-02-01 04:31:00,38.6,24.3,29.79,West,278,0.0,1.0,56,0.00,,,0.00,LWC V2.00 B2112,2013-02-01 09:31:00,
2013-02-01 04:36:00,38.8,24.0,29.79,SSW,198,1.0,1.0,55,0.00,,,0.00,LWC V2.00 B2112,2013-02-01 09:36:00,
2013-02-01 04:41:00,38.8,24.5,29.79,SW,222,3.0,7.0,56,0.00,,,0.00,LWC V2.00 B2112,2013-02-01 09:41:00,
2013-02-01 04:46:00,38.9,24.1,29.79,SW,229,0.0,6.0,55,0.00,,,0.00,LWC V2.00 B2112,2013-02-01 09:46:00,
2013-02-01 04:51:00,39.1,24.3,29.78,WNW,293,7.0,13.0,55,0.00,,,0.00,LWC V2.00 B2112,2013-02-01 09:51:00,
2013-02-01 04:56:00,39.2,24.4,29.78,SW,220,0.0,4.0,55,0.00,,,0.00,LWC V2.00 B2112,2013-02-01 09:56:00,
2013-02-01 05:01:00,39.2,24.4,29.78,SSW,199,0.0,0.0,55,0.00,,,0.00,LWC V2.00 B2112,2013-02-01 10:01:00,
2013-02-01 05:06:00,39.2,24.4,29.77,SE,134,0.0,0.0,55,0.00,,,0.00,LWC V2.00 B2112,2013-02-01 10:06:00,
2013-02-01 05:11:00,39.2,24.0,29.77,SSW,199,0.0,12.0,54,0.00,,,0.00,LWC V2.00 B2112,2013-02-01 10:11:00,
2013-02-01 05:16:00,39.3,24.5,29.77,SW,230,0.0,12.0,55,0.00,,,0.00,LWC V2.00 B2112,2013-02-01 10:16:00,
2013-02-01 05:21:00,39.5,24.7,29.78,SW,219,0.0,6.0,55,0.00,,,0.00,LWC V2.00 B2112,2013-02-01 10:21:00,
2013-02-01 05:26:00,39.5,24.7,29.78,South,188,0.0,8.0,55,0.00,,,0.00,LWC V2.00 B2112,2013-02-01 10:26:00,
2013-02-01 05:31:00,39.5,24.7,29.78,WSW,253,0.0,2.0,55,0.00,,,0.00,LWC V2.00 B2112,2013-02-01 10:31:00,
2013-02-01 05:36:00,39.5,24.7,29.79,West,263,8.0,11.0,55,0.00,,,0.00,LWC V2.00 B2112,2013-02-01 10:36:00,
2013-02-01 05:41:00,39.6,24.3,29.79,SSE,166,3.0,11.0,54,0.00,,,0.00,LWC V2.00 B2112,2013-02-01 10:41:00,
2013-02-01 05:46:00,39.9,24.6,29.79,WNW,285,0.0,9.0,54,0.00,,,0.00,LWC V2.00 B2112,2013-02-01 10:46:00,
2013-02-01 05:51:00,39.9,24.6,29.80,SW,235,4.0,7.0,54,0.00,,,0.00,LWC V2.00 B2112,2013-02-01 10:51:00,
2013-02-01 05:56:00,39.9,24.6,29.80,SW,233,1.0,13.0,54,0.00,,,0.00,LWC V2.00 B2112,2013-02-01 10:56:00,
2013-02-01 06:01:00,39.9,24.6,29.80,SSW,204,0.0,5.0,54,0.00,,,0.00,LWC V2.00 B2112,2013-02-01 11:01:00,
2013-02-01 06:06:00,39.8,25.0,29.80,WNW,300,0.0,6.0,55,0.00,,,0.00,LWC V2.00 B2112,2013-02-01 11:06:00,
2013-02-01 06:11:00,39.9,25.1,29.80,SW,236,9.0,9.0,55,0.00,,,0.00,LWC V2.00 B2112,2013-02-01 11:11:00,
2013-02-01 06:16:00,39.9,25.1,29.80,NNW,329,0.0,0.0,55,0.00,,,0.00,LWC V2.00 B2112,2013-02-01 11:16:00,
2013-02-01 06:21:00,39.8,25.0,29.81,WSW,242,0.0,0.0,55,0.00,,,0.00,LWC V2.00 B2112,2013-02-01 11:21:00,
2013-02-01 06:26:00,39.5,25.1,29.81,WSW,248,6.0,6.0,56,0.00,,,0.00,LWC V2.00 B2112,2013-02-01 11:26:00,
2013-02-01 06:31:00,39.5,25.5,29.81,West,265,0.0,5.0,57,0.00,,,0.00,LWC V2.00 B2112,2013-02-01 11:31:00,
2013-02-01 06:36:00,39.5,25.5,29.83,WSW,238,0.0,11.0,57,0.00,,,0.00,LWC V2.00 B2112,2013-02-01 11:36:00,
2013-02-01 06:41:00,39.5,25.5,29.83,West,268,1.0,12.0,57,0.00,,,0.00,LWC V2.00 B2112,2013-02-01 11:41:00,
2013-02-01 06:46:00,39.5,25.5,29.83,WSW,244,7.0,7.0,57,0.00,,,0.00,LWC V2.00 B2112,2013-02-01 11:46:00,
2013-02-01 06:51:00,39.5,26.0,29.84,West,263,0.0,11.0,58,0.00,,,0.00,LWC V2.00 B2112,2013-02-01 11:51:00,
2013-02-01 06:56:00,39.5,25.5,29.84,WSW,249,0.0,8.0,57,0.00,,,0.00,LWC V2.00 B2112,2013-02-01 11:56:00,
2013-02-01 07:01:00,39.5,25.5,29.84,West,266,0.0,0.0,57,0.00,,,0.00,LWC V2.00 B2112,2013-02-01 12:01:00,
2013-02-01 07:06:00,39.3,25.8,29.85,WSW,241,0.0,4.0,58,0.00,,,0.00,LWC V2.00 B2112,2013-02-01 12:06:00,
2013-02-01 07:11:00,39.2,26.1,29.85,WNW,288,0.0,0.0,59,0.00,,,0.00,LWC V2.00 B2112,2013-02-01 12:11:00,
2013-02-01 07:16:00,39.1,26.0,29.85,NW,313,0.0,0.0,59,0.00,,,0.00,LWC V2.00 B2112,2013-02-01 12:16:00,
2013-02-01 07:21:00,39.1,26.0,29.87,NW,306,0.0,0.0,59,0.00,,,0.00,LWC V2.00 B2112,2013-02-01 12:21:00,
2013-02-01 07:26:00,39.1,26.0,29.87,North,1,0.0,0.0,59,0.00,,,0.00,LWC V2.00 B2112,2013-02-01 12:26:00,
2013-02-01 07:31:00,39.3,26.6,29.87,WNW,298,0.0,0.0,60,0.00,,,0.00,LWC V2.00 B2112,2013-02-01 12:31:00,
2013-02-01 07:36:00,39.3,26.2,29.91,WSW,255,0.0,15.0,59,0.00,,,0.00,LWC V2.00 B2112,2013-02-01 12:36:00,
2013-02-01 07:41:00,38.6,26.3,29.91,North,1,0.0,0.0,61,0.00,,,0.00,LWC V2.00 B2112,2013-02-01 12:41:00,
2013-02-01 07:46:00,37.9,26.1,29.91,South,169,0.0,11.0,62,0.00,,,0.00,LWC V2.00 B2112,2013-02-01 12:46:00,
2013-02-01 07:51:00,37.5,26.1,29.93,WNW,295,7.0,12.0,63,0.00,,,0.00,LWC V2.00 B2112,2013-02-01 12:51:00,
2013-02-01 07:56:00,37.0,26.3,29.93,NNE,20,5.0,15.0,65,0.00,,,0.00,LWC V2.00 B2112,2013-02-01 12:56:00,
2013-02-01 08:01:00,36.8,25.8,29.93,WNW,289,6.0,13.0,64,0.00,,,0.00,LWC V2.00 B2112,2013-02-01 13:01:00,
2013-02-01 08:06:00,36.6,25.2,29.94,SW,225,5.0,17.0,63,0.00,,,0.00,LWC V2.00 B2112,2013-02-01 13:06:00,
2013-02-01 08:11:00,36.3,24.5,29.94,NW,325,0.0,17.0,62,0.00,,,0.00,LWC V2.00 B2112,2013-02-01 13:11:00,
2013-02-01 08:16:00,36.3,24.5,29.94,WNW,298,3.0,10.0,62,0.00,,,0.00,LWC V2.00 B2112,2013-02-01 13:16:00,
2013-02-01 08:21:00,36.5,24.0,29.96,WNW,290,5.0,14.0,60,0.00,,,0.00,LWC V2.00 B2112,2013-02-01 13:21:00,
2013-02-01 08:26:00,36.5,21.9,29.96,NNW,329,0.0,14.0,55,0.00,,,0.00,LWC V2.00 B2112,2013-02-01 13:26:00,
2013-02-01 08:31:00,36.3,21.3,29.96,NW,304,0.0,0.0,54,0.00,,,0.00,LWC V2.00 B2112,2013-02-01 13:31:00,
2013-02-01 08:36:00,35.9,17.7,29.98,WNW,293,3.0,10.0,47,0.00,,,0.00,LWC V2.00 B2112,2013-02-01 13:36:00,
2013-02-01 08:41:00,35.6,15.3,29.98,WNW,296,6.0,23.0,43,0.00,,,0.00,LWC V2.00 B2112,2013-02-01 13:41:00,
2013-02-01 08:46:00,35.5,14.2,29.98,WNW,297,4.0,5.0,41,0.00,,,0.00,LWC V2.00 B2112,2013-02-01 13:46:00,
2013-02-01 08:51:00,35.3,14.0,30.00,North,357,2.0,9.0,41,0.00,,,0.00,LWC V2.00 B2112,2013-02-01 13:51:00,
2013-02-01 08:56:00,35.3,14.5,30.00,WNW,292,0.0,0.0,42,0.00,,,0.00,LWC V2.00 B2112,2013-02-01 13:56:00,
2013-02-01 09:01:00,35.5,13.6,30.00,WSW,245,3.0,7.0,40,0.00,,,0.00,LWC V2.00 B2112,2013-02-01 14:01:00,
2013-02-01 09:06:00,35.5,13.0,30.01,WNW,293,0.0,11.0,39,0.00,,,0.00,LWC V2.00 B2112,2013-02-01 14:06:00,
2013-02-01 09:11:00,35.5,13.0,30.01,NW,306,1.0,2.0,39,0.00,,,0.00,LWC V2.00 B2112,2013-02-01 14:11:00,
2013-02-01 09:16:00,35.3,12.8,30.01,WNW,299,0.0,7.0,39,0.00,,,0.00,LWC V2.00 B2112,2013-02-01 14:16:00,
2013-02-01 09:21:00,35.6,12.5,30.02,North,1,0.0,10.0,38,0.00,,,0.00,LWC V2.00 B2112,2013-02-01 14:21:00,
2013-02-01 09:26:00,35.6,11.9,30.02,NW,324,0.0,3.0,37,0.00,,,0.00,LWC V2.00 B2112,2013-02-01 14:26:00,
2013-02-01 09:31:00,35.8,10.9,30.02,WNW,287,11.0,16.0,35,0.00,,,0.00,LWC V2.00 B2112,2013-02-01 14:31:00,
2013-02-01 09:36:00,35.6,12.5,30.04,North,349,0.0,4.0,38,0.00,,,0.00,LWC V2.00 B2112,2013-02-01 14:36:00,
2013-02-01 09:41:00,35.8,12.1,30.04,WNW,303,0.0,6.0,37,0.00,,,0.00,LWC V2.00 B2112,2013-02-01 14:41:00,
2013-02-01 09:46:00,35.9,12.2,30.04,SSE,166,6.0,13.0,37,0.00,,,0.00,LWC V2.00 B2112,2013-02-01 14:46:00,
2013-02-01 09:51:00,35.5,11.2,30.05,NW,311,9.0,14.0,36,0.00,,,0.00,LWC V2.00 B2112,2013-02-01 14:51:00,
2013-02-01 09:56:00,35.0,12.0,30.05,West,269,4.0,7.0,38,0.00,,,0.00,LWC V2.00 B2112,2013-02-01 14:56:00,
2013-02-01 10:01:00,35.2,12.2,30.05,WSW,249,0.0,12.0,38,0.00,,,0.00,LWC V2.00 B2112,2013-02-01 15:01:00,
2013-02-01 10:06:00,35.5,10.6,30.06,NNW,333,0.0,5.0,35,0.00,,,0.00,LWC V2.00 B2112,2013-02-01 15:06:00,
2013-02-01 10:11:00,35.5,11.2,30.06,WSW,245,3.0,3.0,36,0.00,,,0.00,LWC V2.00 B2112,2013-02-01 15:11:00,
2013-02-01 10:16:00,35.2,12.8,30.06,North,357,0.0,0.0,39,0.00,,,0.00,LWC V2.00 B2112,2013-02-01 15:16:00,
2013-02-01 10:21:00,34.7,9.9,30.08,West,277,9.0,17.0,35,0.00,,,0.00,LWC V2.00 B2112,2013-02-01 15:21:00,
2013-02-01 10:31:00,34.6,7.1,30.08,West,266,0.0,15.0,31,0.00,,,0.00,LWC V2.00 B2112,2013-02-01 15:31:00,
2013-02-01 10:36:00,34.4,3.9,30.09,NNW,335,0.0,11.0,27,0.00,,,0.00,LWC V2.00 B2112,2013-02-01 15:36:00,
2013-02-01 10:41:00,34.3,3.0,30.09,NNW,328,12.0,12.0,26,0.00,,,0.00,LWC V2.00 B2112,2013-02-01 15:41:00,
2013-02-01 10:46:00,34.4,3.1,30.09,NW,311,4.0,10.0,26,0.00,,,0.00,LWC V2.00 B2112,2013-02-01 15:46:00,
2013-02-01 10:51:00,34.6,3.3,30.10,WNW,290,5.0,5.0,26,0.00,,,0.00,LWC V2.00 B2112,2013-02-01 15:51:00,
2013-02-01 10:56:00,34.4,1.4,30.10,WNW,294,7.0,14.0,24,0.00,,,0.00,LWC V2.00 B2112,2013-02-01 15:56:00,
2013-02-01 11:01:00,34.1,2.0,30.10,North,0,6.0,13.0,25,0.00,,,0.00,LWC V2.00 B2112,2013-02-01 16:01:00,
2013-02-01 11:06:00,34.0,3.6,30.11,North,352,2.0,4.0,27,0.00,,,0.00,LWC V2.00 B2112,2013-02-01 16:06:00,
2013-02-01 11:11:00,34.3,4.6,30.11,NNW,327,0.0,3.0,28,0.00,,,0.00,LWC V2.00 B2112,2013-02-01 16:11:00,
2013-02-01 11:16:00,34.7,3.4,30.11,NNW,338,11.0,13.0,26,0.00,,,0.00,LWC V2.00 B2112,2013-02-01 16:16:00,
2013-02-01 11:21:00,34.4,1.4,30.12,NW,325,2.0,11.0,24,0.00,,,0.00,LWC V2.00 B2112,2013-02-01 16:21:00,
2013-02-01 11:26:00,34.0,1.0,30.12,NW,311,0.0,6.0,24,0.00,,,0.00,LWC V2.00 B2112,2013-02-01 16:26:00,
2013-02-01 11:31:00,34.4,2.3,30.12,WNW,295,1.0,5.0,25,0.00,,,0.00,LWC V2.00 B2112,2013-02-01 16:31:00,
2013-02-01 11:36:00,34.7,2.5,30.12,NW,305,3.0,14.0,25,0.00,,,0.00,LWC V2.00 B2112,2013-02-01 16:36:00,
2013-02-01 11:41:00,34.6,3.3,30.12,NW,304,4.0,9.0,26,0.00,,,0.00,LWC V2.00 B2112,2013-02-01 16:41:00,
2013-02-01 11:46:00,35.0,5.2,30.12,WNW,283,2.0,6.0,28,0.00,,,0.00,LWC V2.00 B2112,2013-02-01 16:46:00,
2013-02-01 11:51:00,35.2,2.9,30.12,WSW,257,6.0,14.0,25,0.00,,,0.00,LWC V2.00 B2112,2013-02-01 16:51:00,
2013-02-01 11:56:00,35.2,2.9,30.12,North,353,7.0,7.0,25,0.00,,,0.00,LWC V2.00 B2112,2013-02-01 16:56:00,
2013-02-01 12:01:00,35.3,3.9,30.12,NW,304,1.0,10.0,26,0.00,,,0.00,LWC V2.00 B2112,2013-02-01 17:01:00,
2013-02-01 12:06:00,35.2,3.8,30.12,West,279,0.0,1.0,26,0.00,,,0.00,LWC V2.00 B2112,2013-02-01 17:06:00,
2013-02-01 12:11:00,35.2,2.9,30.12,NNW,344,0.0,11.0,25,0.00,,,0.00,LWC V2.00 B2112,2013-02-01 17:11:00,
2013-02-01 12:16:00,34.7,2.5,30.12,North,10,0.0,11.0,25,0.00,,,0.00,LWC V2.00 B2112,2013-02-01 17:16:00,
2013-02-01 12:21:00,34.7,4.2,30.12,WNW,300,6.0,7.0,27,0.00,,,0.00,LWC V2.00 B2112,2013-02-01 17:21:00,
2013-02-01 12:26:00,35.0,4.4,30.12,NNW,344,0.0,3.0,27,0.00,,,0.00,LWC V2.00 B2112,2013-02-01 17:26:00,
2013-02-01 12:31:00,34.9,0.9,30.12,WNW,290,0.0,10.0,23,0.00,,,0.00,LWC V2.00 B2112,2013-02-01 17:31:00,
2013-02-01 12:36:00,34.9,2.7,30.12,NW,309,4.0,10.0,25,0.00,,,0.00,LWC V2.00 B2112,2013-02-01 17:36:00,
2013-02-01 12:41:00,35.0,1.9,30.12,WNW,301,5.0,10.0,24,0.00,,,0.00,LWC V2.00 B2112,2013-02-01 17:41:00,
2013-02-01 12:46:00,35.0,3.6,30.12,WNW,297,0.0,6.0,26,0.00,,,0.00,LWC V2.00 B2112,2013-02-01 17:46:00,
2013-02-01 12:51:00,35.5,5.7,30.12,North,352,0.0,0.0,28,0.00,,,0.00,LWC V2.00 B2112,2013-02-01 17:51:00,
2013-02-01 12:56:00,35.8,4.3,30.12,NW,319,16.0,18.0,26,0.00,,,0.00,LWC V2.00 B2112,2013-02-01 17:56:00,
2013-02-01 13:01:00,35.5,4.9,30.12,NNW,340,0.0,0.0,27,0.00,,,0.00,LWC V2.00 B2112,2013-02-01 18:01:00,
2013-02-01 13:06:00,35.8,4.3,30.12,North,359,5.0,10.0,26,0.00,,,0.00,LWC V2.00 B2112,2013-02-01 18:06:00,
2013-02-01 13:11:00,35.6,5.0,30.12,NNW,335,6.0,9.0,27,0.00,,,0.00,LWC V2.00 B2112,2013-02-01 18:11:00,
2013-02-01 13:16:00,35.5,4.1,30.12,SW,221,0.0,7.0,26,0.00,,,0.00,LWC V2.00 B2112,2013-02-01 18:16:00,
2013-02-01 13:21:00,35.3,3.9,30.12,WSW,238,4.0,12.0,26,0.00,,,0.00,LWC V2.00 B2112,2013-02-01 18:21:00,
2013-02-01 13:26:00,35.5,4.9,30.12,SW,229,5.0,5.0,27,0.00,,,0.00,LWC V2.00 B2112,2013-02-01 18:26:00,
2013-02-01 13:31:00,35.8,5.1,30.12,SSW,194,0.0,10.0,27,0.00,,,0.00,LWC V2.00 B2112,2013-02-01 18:31:00,
2013-02-01 13:36:00,35.8,3.5,30.12,NW,304,1.0,4.0,25,0.00,,,0.00,LWC V2.00 B2112,2013-02-01 18:36:00,
2013-02-01 13:41:00,35.6,4.1,30.12,WNW,297,4.0,9.0,26,0.00,,,0.00,LWC V2.00 B2112,2013-02-01 18:41:00,
2013-02-01 13:46:00,35.2,4.6,30.12,NW,304,0.0,8.0,27,0.00,,,0.00,LWC V2.00 B2112,2013-02-01 18:46:00,
2013-02-01 13:51:00,35.3,3.0,30.12,NW,307,0.0,13.0,25,0.00,,,0.00,LWC V2.00 B2112,2013-02-01 18:51:00,
2013-02-01 13:56:00,35.5,4.1,30.12,NW,311,0.0,7.0,26,0.00,,,0.00,LWC V2.00 B2112,2013-02-01 18:56:00,
2013-02-01 14:01:00,35.9,4.4,30.12,WNW,286,0.0,10.0,26,0.00,,,0.00,LWC V2.00 B2112,2013-02-01 19:01:00,
2013-02-01 14:06:00,36.0,5.3,30.12,North,359,0.0,10.0,27,0.00,,,0.00,LWC V2.00 B2112,2013-02-01 19:06:00,
2013-02-01 14:16:00,35.9,4.4,30.12,North,359,0.0,7.0,26,0.00,,,0.00,LWC V2.00 B2112,2013-02-01 19:16:00,
2013-02-01 14:21:00,36.2,4.7,30.13,North,350,4.0,5.0,26,0.00,,,0.00,LWC V2.00 B2112,2013-02-01 19:21:00,
2013-02-01 14:26:00,36.0,3.6,30.13,WNW,300,0.0,10.0,25,0.00,,,0.00,LWC V2.00 B2112,2013-02-01 19:26:00,
2013-02-01 14:31:00,36.2,4.7,30.13,NW,311,0.0,17.0,26,0.00,,,0.00,LWC V2.00 B2112,2013-02-01 19:31:00,
2013-02-01 14:36:00,36.2,4.7,30.13,North,352,0.0,1.0,26,0.00,,,0.00,LWC V2.00 B2112,2013-02-01 19:36:00,
2013-02-01 14:41:00,36.2,3.8,30.13,WNW,282,1.0,6.0,25,0.00,,,0.00,LWC V2.00 B2112,2013-02-01 19:41:00,
2013-02-01 14:46:00,36.5,4.1,30.13,NW,308,0.0,5.0,25,0.00,,,0.00,LWC V2.00 B2112,2013-02-01 19:46:00,
2013-02-01 14:51:00,36.3,5.6,30.13,SSW,208,0.0,7.0,27,0.00,,,0.00,LWC V2.00 B2112,2013-02-01 19:51:00,
2013-02-01 14:56:00,36.5,4.9,30.13,NW,307,0.0,11.0,26,0.00,,,0.00,LWC V2.00 B2112,2013-02-01 19:56:00,
2013-02-01 15:01:00,36.3,3.0,30.13,West,273,10.0,11.0,24,0.00,,,0.00,LWC V2.00 B2112,2013-02-01 20:01:00,
2013-02-01 15:06:00,36.2,2.9,30.13,NW,316,0.0,10.0,24,0.00,,,0.00,LWC V2.00 B2112,2013-02-01 20:06:00,
2013-02-01 15:11:00,36.5,3.2,30.13,SE,134,0.0,6.0,24,0.00,,,0.00,LWC V2.00 B2112,2013-02-01 20:11:00,
2013-02-01 15:16:00,36.9,3.5,30.13,NW,309,8.0,8.0,24,0.00,,,0.00,LWC V2.00 B2112,2013-02-01 20:16:00,
2013-02-01 15:21:00,36.8,2.5,30.14,WSW,248,6.0,11.0,23,0.00,,,0.00,LWC V2.00 B2112,2013-02-01 20:21:00,
2013-02-01 15:26:00,36.8,4.3,30.14,WNW,297,2.0,6.0,25,0.00,,,0.00,LWC V2.00 B2112,2013-02-01 20:26:00,
2013-02-01 15:31:00,36.8,3.4,30.14,NW,304,5.0,11.0,24,0.00,,,0.00,LWC V2.00 B2112,2013-02-01 20:31:00,
2013-02-01 15:36:00,36.5,2.3,30.15,NW,307,0.0,10.0,23,0.00,,,0.00,LWC V2.00 B2112,2013-02-01 20:36:00,
2013-02-01 15:41:00,36.2,2.0,30.15,North,359,0.0,14.0,23,0.00,,,0.00,LWC V2.00 B2112,2013-02-01 20:41:00,
2013-02-01 15:46:00,36.2,1.1,30.15,North,1,0.0,5.0,22,0.00,,,0.00,LWC V2.00 B2112,2013-02-01 20:46:00,
2013-02-01 15:51:00,36.0,-0.1,30.15,WSW,255,0.0,12.0,21,0.00,,,0.00,LWC V2.00 B2112,2013-02-01 20:51:00,
2013-02-01 15:56:00,36.0,1.8,30.15,North,352,0.0,0.0,23,0.00,,,0.00,LWC V2.00 B2112,2013-02-01 20:56:00,
2013-02-01 16:01:00,36.2,2.0,30.15,North,359,0.0,0.0,23,0.00,,,0.00,LWC V2.00 B2112,2013-02-01 21:01:00,
2013-02-01 16:11:00,36.6,2.3,30.16,WNW,302,0.0,5.0,23,0.00,,,0.00,LWC V2.00 B2112,2013-02-01 21:11:00,
2013-02-01 16:16:00,36.6,2.3,30.16,NW,309,0.0,0.0,23,0.00,,,0.00,LWC V2.00 B2112,2013-02-01 21:16:00,
2013-02-01 16:21:00,36.5,0.3,30.16,NW,305,4.0,8.0,21,0.00,,,0.00,LWC V2.00 B2112,2013-02-01 21:21:00,
2013-02-01 16:26:00,36.2,2.9,30.16,West,260,0.0,7.0,24,0.00,,,0.00,LWC V2.00 B2112,2013-02-01 21:26:00,
2013-02-01 16:31:00,36.2,1.1,30.16,NW,316,0.0,6.0,22,0.00,,,0.00,LWC V2.00 B2112,2013-02-01 21:31:00,
2013-02-01 16:36:00,36.0,3.6,30.16,NNE,14,3.0,6.0,25,0.00,,,0.00,LWC V2.00 B2112,2013-02-01 21:36:00,
2013-02-01 16:41:00,35.8,0.7,30.16,NW,309,0.0,6.0,22,0.00,,,0.00,LWC V2.00 B2112,2013-02-01 21:41:00,
2013-02-01 16:46:00,35.5,0.5,30.16,NW,306,0.0,2.0,22,0.00,,,0.00,LWC V2.00 B2112,2013-02-01 21:46:00,
2013-02-01 16:51:00,35.2,2.1,30.17,WNW,300,0.0,3.0,24,0.00,,,0.00,LWC V2.00 B2112,2013-02-01 21:51:00,
2013-02-01 16:56:00,34.9,1.8,30.17,WNW,297,0.0,14.0,24,0.00,,,0.00,LWC V2.00 B2112,2013-02-01 21:56:00,
2013-02-01 17:01:00,34.6,1.6,30.17,North,356,0.0,2.0,24,0.00,,,0.00,LWC V2.00 B2112,2013-02-01 22:01:00,
2013-02-01 17:06:00,34.3,2.2,30.17,North,352,0.0,0.0,25,0.00,,,0.00,LWC V2.00 B2112,2013-02-01 22:06:00,
2013-02-01 17:11:00,34.0,1.9,30.17,NW,308,0.0,0.0,25,0.00,,,0.00,LWC V2.00 B2112,2013-02-01 22:11:00,
2013-02-01 17:16:00,33.7,1.7,30.17,North,350,0.0,6.0,25,0.00,,,0.00,LWC V2.00 B2112,2013-02-01 22:16:00,
2013-02-01 17:21:00,33.5,1.5,30.17,NNW,345,0.0,5.0,25,0.00,,,0.00,LWC V2.00 B2112,2013-02-01 22:21:00,
2013-02-01 17:26:00,33.2,1.2,30.17,WNW,297,0.0,0.0,25,0.00,,,0.00,LWC V2.00 B2112,2013-02-01 22:26:00,
2013-02-01 17:31:00,33.1,1.1,30.17,WNW,299,0.0,0.0,25,0.00,,,0.00,LWC V2.00 B2112,2013-02-01 22:31:00,
2013-02-01 17:36:00,32.8,1.7,30.18,West,270,0.0,0.0,26,0.00,,,0.00,LWC V2.00 B2112,2013-02-01 22:36:00,
2013-02-01 17:41:00,32.5,3.1,30.18,West,270,0.0,0.0,28,0.00,,,0.00,LWC V2.00 B2112,2013-02-01 22:41:00,
2013-02-01 17:46:00,32.2,1.2,30.18,West,274,0.0,0.0,26,0.00,,,0.00,LWC V2.00 B2112,2013-02-01 22:46:00,
2013-02-01 17:51:00,32.1,1.9,30.18,WNW,286,0.0,0.0,27,0.00,,,0.00,LWC V2.00 B2112,2013-02-01 22:51:00,
2013-02-01 17:56:00,31.8,1.7,30.18,WNW,286,0.0,0.0,27,0.00,,,0.00,LWC V2.00 B2112,2013-02-01 22:56:00,
2013-02-01 18:01:00,31.5,1.4,30.18,WNW,286,0.0,0.0,27,0.00,,,0.00,LWC V2.00 B2112,2013-02-01 23:01:00,
2013-02-01 18:06:00,31.2,3.4,30.20,WNW,286,0.0,0.0,30,0.00,,,0.00,LWC V2.00 B2112,2013-02-01 23:06:00,
2013-02-01 18:11:00,30.6,2.2,30.20,WNW,286,0.0,0.0,29,0.00,,,0.00,LWC V2.00 B2112,2013-02-01 23:11:00,
2013-02-01 18:16:00,30.3,3.3,30.20,WNW,286,0.0,0.0,31,0.00,,,0.00,LWC V2.00 B2112,2013-02-01 23:16:00,
2013-02-01 18:21:00,29.8,2.9,30.20,WNW,286,0.0,0.0,31,0.00,,,0.00,LWC V2.00 B2112,2013-02-01 23:21:00,
2013-02-01 18:26:00,29.5,5.3,30.20,WNW,286,0.0,0.0,35,0.00,,,0.00,LWC V2.00 B2112,2013-02-01 23:26:00,
2013-02-01 18:31:00,29.3,5.1,30.20,WNW,286,0.0,0.0,35,0.00,,,0.00,LWC V2.00 B2112,2013-02-01 23:31:00,
2013-02-01 18:36:00,29.0,3.5,30.22,WNW,289,0.0,0.0,33,0.00,,,0.00,LWC V2.00 B2112,2013-02-01 23:36:00,
2013-02-01 18:41:00,29.1,4.3,30.22,WNW,289,0.0,0.0,34,0.00,,,0.00,LWC V2.00 B2112,2013-02-01 23:41:00,
2013-02-01 18:46:00,29.1,6.1,30.22,WNW,289,0.0,0.0,37,0.00,,,0.00,LWC V2.00 B2112,2013-02-01 23:46:00,
2013-02-01 18:51:00,28.8,6.4,30.23,WNW,289,0.0,0.0,38,0.00,,,0.00,LWC V2.00 B2112,2013-02-01 23:51:00,
2013-02-01 18:56:00,28.5,5.6,30.23,WNW,289,0.0,0.0,37,0.00,,,0.00,LWC V2.00 B2112,2013-02-01 23:56:00,
2013-02-01 19:01:00,28.2,6.5,30.23,WNW,289,0.0,0.0,39,0.00,,,0.00,LWC V2.00 B2112,2013-02-02 00:01:00,
2013-02-01 19:06:00,27.8,6.7,30.24,WNW,289,0.0,0.0,40,0.00,,,0.00,LWC V2.00 B2112,2013-02-02 00:06:00,
2013-02-01 19:11:00,27.5,7.5,30.24,WNW,289,0.0,0.0,42,0.00,,,0.00,LWC V2.00 B2112,2013-02-02 00:11:00,
2013-02-01 19:16:00,27.3,6.2,30.24,WNW,289,0.0,0.0,40,0.00,,,0.00,LWC V2.00 B2112,2013-02-02 00:16:00,
2013-02-01 19:21:00,27.3,4.5,30.24,WNW,289,0.0,0.0,37,0.00,,,0.00,LWC V2.00 B2112,2013-02-02 00:21:00,
2013-02-01 19:26:00,27.3,6.2,30.24,WNW,289,0.0,0.0,40,0.00,,,0.00,LWC V2.00 B2112,2013-02-02 00:26:00,
2013-02-01 19:31:00,27.2,9.7,30.24,WNW,289,0.0,0.0,47,0.00,,,0.00,LWC V2.00 B2112,2013-02-02 00:31:00,
2013-02-01 19:36:00,27.0,8.0,30.25,WNW,289,0.0,0.0,44,0.00,,,0.00,LWC V2.00 B2112,2013-02-02 00:36:00,
2013-02-01 19:41:00,26.9,6.4,30.25,WNW,289,0.0,0.0,41,0.00,,,0.00,LWC V2.00 B2112,2013-02-02 00:41:00,
2013-02-01 19:46:00,26.7,7.8,30.25,WNW,289,0.0,0.0,44,0.00,,,0.00,LWC V2.00 B2112,2013-02-02 00:46:00,
2013-02-01 19:51:00,26.4,7.5,30.26,WNW,289,0.0,0.0,44,0.00,,,0.00,LWC V2.00 B2112,2013-02-02 00:51:00,
2013-02-01 19:56:00,26.4,8.0,30.26,WNW,289,0.0,0.0,45,0.00,,,0.00,LWC V2.00 B2112,2013-02-02 00:56:00,
2013-02-01 20:01:00,26.4,7.5,30.26,WNW,289,0.0,0.0,44,0.00,,,0.00,LWC V2.00 B2112,2013-02-02 01:01:00,
2013-02-01 20:06:00,26.4,7.5,30.26,WNW,289,0.0,0.0,44,0.00,,,0.00,LWC V2.00 B2112,2013-02-02 01:06:00,
2013-02-01 20:11:00,26.3,7.4,30.26,WNW,289,0.0,0.0,44,0.00,,,0.00,LWC V2.00 B2112,2013-02-02 01:11:00,
2013-02-01 20:16:00,26.1,8.7,30.26,WNW,289,0.0,0.0,47,0.00,,,0.00,LWC V2.00 B2112,2013-02-02 01:16:00,
2013-02-01 20:21:00,25.8,8.8,30.26,WNW,289,0.0,0.0,48,0.00,,,0.00,LWC V2.00 B2112,2013-02-02 01:21:00,
2013-02-01 20:26:00,25.7,7.3,30.26,WNW,289,0.0,0.0,45,0.00,,,0.00,LWC V2.00 B2112,2013-02-02 01:26:00,
2013-02-01 20:31:00,25.8,8.4,30.26,WNW,289,0.0,0.0,47,0.00,,,0.00,LWC V2.00 B2112,2013-02-02 01:31:00,
2013-02-01 20:36:00,25.8,6.9,30.27,WNW,289,0.0,0.0,44,0.00,,,0.00,LWC V2.00 B2112,2013-02-02 01:36:00,
2013-02-01 20:41:00,26.0,5.6,30.27,WNW,289,0.0,0.0,41,0.00,,,0.00,LWC V2.00 B2112,2013-02-02 01:41:00,
2013-02-01 20:46:00,26.0,6.6,30.27,WNW,289,0.0,0.0,43,0.00,,,0.00,LWC V2.00 B2112,2013-02-02 01:46:00,
2013-02-01 20:51:00,25.8,6.4,30.28,WNW,289,0.0,0.0,43,0.00,,,0.00,LWC V2.00 B2112,2013-02-02 01:51:00,
2013-02-01 20:56:00,25.7,6.3,30.28,WNW,289,0.0,0.0,43,0.00,,,0.00,LWC V2.00 B2112,2013-02-02 01:56:00,
2013-02-01 21:01:00,25.4,6.6,30.28,WNW,289,0.0,0.0,44,0.00,,,0.00,LWC V2.00 B2112,2013-02-02 02:01:00,
2013-02-01 21:06:00,25.4,6.6,30.29,WNW,289,0.0,0.0,44,0.00,,,0.00,LWC V2.00 B2112,2013-02-02 02:06:00,
2013-02-01 21:11:00,25.6,5.2,30.29,WNW,289,0.0,0.0,41,0.00,,,0.00,LWC V2.00 B2112,2013-02-02 02:11:00,
2013-02-01 21:16:00,25.7,8.8,30.29,WNW,289,0.0,0.0,48,0.00,,,0.00,LWC V2.00 B2112,2013-02-02 02:16:00,
2013-02-01 21:21:00,25.7,5.8,30.30,WNW,289,0.0,0.0,42,0.00,,,0.00,LWC V2.00 B2112,2013-02-02 02:21:00,
2013-02-01 21:26:00,25.8,4.8,30.30,WNW,289,0.0,0.0,40,0.00,,,0.00,LWC V2.00 B2112,2013-02-02 02:26:00,
2013-02-01 21:31:00,26.0,5.0,30.30,WNW,289,0.0,0.0,40,0.00,,,0.00,LWC V2.00 B2112,2013-02-02 02:31:00,
2013-02-01 21:36:00,26.0,6.1,30.31,WNW,289,0.0,0.0,42,0.00,,,0.00,LWC V2.00 B2112,2013-02-02 02:36:00,
2013-02-01 21:41:00,25.8,6.4,30.31,WNW,289,0.0,0.0,43,0.00,,,0.00,LWC V2.00 B2112,2013-02-02 02:41:00,
2013-02-01 21:46:00,25.6,6.7,30.31,WNW,289,0.0,0.0,44,0.00,,,0.00,LWC V2.00 B2112,2013-02-02 02:46:00,
2013-02-01 21:51:00,25.3,6.5,30.31,WNW,289,0.0,0.0,44,0.00,,,0.00,LWC V2.00 B2112,2013-02-02 02:51:00,
2013-02-01 21:56:00,25.3,6.0,30.31,WNW,289,0.0,0.0,43,0.00,,,0.00,LWC V2.00 B2112,2013-02-02 02:56:00,
2013-02-01 22:01:00,25.3,6.5,30.31,WNW,289,0.0,0.0,44,0.00,,,0.00,LWC V2.00 B2112,2013-02-02 03:01:00,
2013-02-01 22:06:00,25.4,6.6,30.30,WNW,289,0.0,0.0,44,0.00,,,0.00,LWC V2.00 B2112,2013-02-02 03:06:00,
2013-02-01 22:11:00,25.3,6.0,30.30,WNW,289,0.0,0.0,43,0.00,,,0.00,LWC V2.00 B2112,2013-02-02 03:11:00,
2013-02-01 22:16:00,25.4,6.1,30.30,WNW,289,0.0,0.0,43,0.00,,,0.00,LWC V2.00 B2112,2013-02-02 03:16:00,
2013-02-01 22:21:00,25.4,5.5,30.31,WNW,289,0.0,0.0,42,0.00,,,0.00,LWC V2.00 B2112,2013-02-02 03:21:00,
2013-02-01 22:26:00,25.3,6.0,30.31,WNW,289,0.0,0.0,43,0.00,,,0.00,LWC V2.00 B2112,2013-02-02 03:26:00,
2013-02-01 22:31:00,25.0,6.7,30.31,WNW,289,0.0,0.0,45,0.00,,,0.00,LWC V2.00 B2112,2013-02-02 03:31:00,
2013-02-01 22:36:00,24.8,6.0,30.30,WNW,289,0.0,0.0,44,0.00,,,0.00,LWC V2.00 B2112,2013-02-02 03:36:00,
2013-02-01 22:41:00,25.0,5.2,30.30,WNW,289,0.0,0.0,42,0.00,,,0.00,LWC V2.00 B2112,2013-02-02 03:41:00,
2013-02-01 22:46:00,25.1,4.8,30.30,WNW,289,0.0,0.0,41,0.00,,,0.00,LWC V2.00 B2112,2013-02-02 03:46:00,
2013-02-01 22:51:00,25.1,5.8,30.30,WNW,289,0.0,0.0,43,0.00,,,0.00,LWC V2.00 B2112,2013-02-02 03:51:00,
2013-02-01 22:56:00,24.8,6.5,30.30,WNW,289,0.0,0.0,45,0.00,,,0.00,LWC V2.00 B2112,2013-02-02 03:56:00,
2013-02-01 23:01:00,24.7,5.9,30.30,WNW,289,0.0,0.0,44,0.00,,,0.00,LWC V2.00 B2112,2013-02-02 04:01:00,
2013-02-01 23:06:00,24.5,6.2,30.31,WNW,289,0.0,0.0,45,0.00,,,0.00,LWC V2.00 B2112,2013-02-02 04:06:00,
2013-02-01 23:11:00,24.4,5.7,30.31,WNW,289,0.0,0.0,44,0.00,,,0.00,LWC V2.00 B2112,2013-02-02 04:11:00,
2013-02-01 23:16:00,24.2,6.9,30.31,WNW,289,0.0,0.0,47,0.00,,,0.00,LWC V2.00 B2112,2013-02-02 04:16:00,
2013-02-01 23:21:00,23.9,5.7,30.31,WNW,289,0.0,0.0,45,0.00,,,0.00,LWC V2.00 B2112,2013-02-02 04:21:00,
2013-02-01 23:26:00,23.8,5.6,30.31,WNW,289,0.0,0.0,45,0.00,,,0.00,LWC V2.00 B2112,2013-02-02 04:26:00,
2013-02-01 23:31:00,23.6,5.9,30.31,WNW,289,0.0,0.0,46,0.00,,,0.00,LWC V2.00 B2112,2013-02-02 04:31:00,
2013-02-01 23:36:00,23.3,6.5,30.31,WNW,289,0.0,0.0,48,0.00,,,0.00,LWC V2.00 B2112,2013-02-02 04:36:00,
2013-02-01 23:41:00,23.2,8.2,30.31,WNW,289,0.0,0.0,52,0.00,,,0.00,LWC V2.00 B2112,2013-02-02 04:41:00,
2013-02-01 23:46:00,23.2,8.2,30.31,WNW,289,0.0,0.0,52,0.00,,,0.00,LWC V2.00 B2112,2013-02-02 04:46:00,
2013-02-01 23:51:00,22.9,8.8,30.30,WNW,289,0.0,0.0,54,0.00,,,0.00,LWC V2.00 B2112,2013-02-02 04:51:00,
2013-02-01 23:56:00,22.7,8.2,30.30,WNW,289,0.0,0.0,53,0.00,,,0.00,LWC V2.00 B2112,2013-02-02 04:56:00,